[[{"header":{"parameterUnit":"m.s-1","parameterCategory":2,"la1":30.2991,"la2":30.254,"lo1":-89.0895,"lo2":-89.0444,"dy":0.0017,"dx":0.0017,"nx":28,"ny":28,"refTime":"2024-02-08T03:00:00:Z","depth":"0","parameterNumber":2,"parameterNumberName":"U-component_of_CURRENTS"},"data":[0,0,0,0,0,0,0,0,0,0,0,0,0,0,0,0,0,0,0,0,0,0,0,0,0,0,0,0,0,0,0,0,0,0,0,0,0,0,0,0,0,0,0,0,0,0,0,0,0,0,0,0,0,0,0,0,0,0,-0.248,-0.2481,0,-0.2538,-0.2538,-0.2539,-0.2544,-0.2543,-0.2543,-0.2542,-0.2643,-0.2646,-0.2649,0,0,0,0,0,0,0,0,0,0,0,0,0,-0.2391,-0.2392,-0.248,-0.2481,-0.2482,-0.2538,-0.2538,-0.2539,-0.2544,-0.2543,-0.2543,-0.2542,-0.2642,-0.2646,-0.2649,0,0,0,0,0,0,0,0,0,0,0,0,0,-0.2436,-0.2393,-0.248,-0.2492,-0.2494,-0.2538,-0.2538,-0.2539,-0.2544,-0.2543,-0.2543,-0.2542,-0.2641,-0.2645,-0.265,-0.2692,0,0,-0.2664,-0.2666,0,0,0,0,0,0,0,0,-0.2433,-0.2439,-0.249,-0.2492,-0.2494,-0.2534,-0.2544,-0.2593,-0.2544,-0.2523,-0.2542,-0.2542,-0.2612,-0.2619,-0.2628,-0.2697,-0.2701,-0.2664,-0.2667,-0.2669,-0.2671,0,0,0,0,0,0,0,-0.243,-0.2436,-0.2501,-0.2491,-0.2493,-0.2501,-0.2506,-0.2553,-0.257,-0.2525,-0.2526,-0.2535,-0.2613,-0.2624,-0.2631,-0.2703,-0.2664,-0.2668,-0.2671,-0.2673,-0.2853,-0.2854,0,0,0,0,0,0,-0.2426,-0.2434,-0.25,-0.2503,-0.2463,-0.2503,-0.2509,-0.2521,-0.2569,-0.2576,-0.2536,-0.2535,-0.2616,-0.2626,-0.2635,-0.2711,-0.2669,-0.2674,-0.2676,-0.2851,-0.2853,-0.2855,0,0,0,0,0,0,-0.2424,-0.2432,-0.2497,-0.2471,-0.248,-0.2505,-0.2519,-0.2522,-0.2533,-0.2577,-0.2584,-0.2543,-0.2616,-0.2628,-0.2686,-0.2714,-0.2676,-0.268,-0.2848,-0.2851,-0.2854,-0.2849,0,0,0,0,0,0,-0.2422,-0.2431,-0.2435,-0.2471,-0.2481,-0.2537,-0.252,-0.2524,-0.2541,-0.254,-0.2586,-0.2594,-0.2616,-0.2679,-0.2691,-0.272,-0.2683,-0.2846,-0.285,-0.2853,-0.2847,-0.2851,-0.2855,0,0,0,0,0,-0.2418,-0.2436,-0.2434,-0.2442,-0.2487,-0.2538,-0.2545,-0.2559,-0.2542,-0.2561,-0.2587,-0.2593,-0.2711,-0.2685,-0.2698,-0.2728,-0.2844,-0.2849,-0.2853,-0.2845,-0.285,-0.2855,0,0,0,0,0,0,-0.2396,-0.2439,-0.2438,-0.2465,-0.2502,-0.254,-0.2556,-0.256,-0.2594,-0.259,-0.2617,-0.2629,-0.2692,-0.2717,-0.2686,-0.2794,-0.278,-0.2787,-0.2769,-0.2775,-0.278,-0.2788,-0.2687,0,0,0,0,0,-0.2393,-0.2417,-0.2458,-0.2479,-0.2497,-0.2523,-0.254,-0.2555,-0.259,-0.2602,-0.2631,-0.2672,-0.2723,-0.2751,-0.28,-0.2857,-0.283,-0.2888,-0.2893,-0.2896,-0.2915,-0.2867,-0.2867,-0.287,-0.287,-0.287,0,0,-0.2389,-0.2415,-0.2427,-0.2476,-0.2499,-0.2551,-0.2532,-0.2569,-0.2613,-0.2611,-0.267,-0.269,-0.2743,-0.2807,-0.2838,-0.2828,-0.2881,-0.2902,-0.2904,-0.2921,-0.2872,-0.2871,-0.287,-0.2873,-0.2872,-0.2872,0,0,-0.2411,-0.2417,-0.2453,-0.249,-0.2537,-0.2564,-0.2576,-0.2618,-0.2636,-0.2696,-0.2705,-0.2736,-0.2816,-0.285,-0.288,-0.2942,-0.2905,-0.2962,-0.2991,-0.2943,-0.2941,-0.294,-0.2887,-0.288,-0.2963,-0.2963,-0.2963,0,-0.2401,-0.2452,-0.2471,-0.2523,-0.2558,-0.2573,-0.2628,-0.2661,-0.2716,-0.2734,-0.2721,-0.2804,-0.284,-0.2908,-0.2936,-0.295,-0.2911,-0.2958,-0.2943,-0.2941,-0.2939,-0.2886,-0.2879,-0.2963,-0.2963,-0.2963,-0.2963,0,-0.2463,-0.2501,-0.2526,-0.2598,-0.2641,-0.2687,-0.2741,-0.2775,-0.2785,-0.2807,-0.2857,-0.2881,-0.2925,-0.2942,-0.2967,-0.299,-0.296,-0.2946,-0.2915,-0.2938,-0.2881,-0.2874,-0.2963,-0.2963,-0.2963,-0.2963,0,0,-0.2444,-0.2549,-0.2556,-0.2594,-0.2681,-0.2719,-0.2799,-0.2866,-0.2895,-0.2922,-0.2948,-0.302,-0.2993,-0.3027,-0.3033,-0.3006,-0.2955,-0.2978,-0.2975,-0.2902,-0.2835,-0.2758,-0.2742,-0.2919,-0.2918,-0.2918,-0.2793,0,-0.2483,-0.2579,-0.2633,-0.2721,-0.277,-0.2821,-0.2892,-0.2949,-0.2977,-0.3004,-0.3006,-0.3036,-0.3037,-0.3037,-0.3015,-0.2978,-0.2939,-0.2991,-0.2849,-0.2845,-0.2752,-0.2732,-0.2638,-0.2514,-0.2785,-0.2784,-0.2783,0,-0.252,-0.2581,-0.267,-0.2771,-0.2797,-0.2853,-0.2936,-0.3002,-0.3054,-0.3068,-0.3078,-0.3074,-0.3075,-0.3046,-0.2969,-0.2994,-0.2929,-0.288,-0.2873,-0.2804,-0.2754,-0.2543,-0.2489,-0.2474,-0.2771,-0.2772,-0.2772,0,-0.2478,-0.26,-0.2664,-0.2701,-0.2823,-0.2864,-0.2926,-0.3002,-0.3043,-0.3085,-0.3085,-0.3088,-0.3056,-0.2992,-0.2912,-0.2931,-0.2786,-0.2791,-0.2657,-0.265,-0.2548,-0.2533,-0.2443,-0.2718,-0.2718,-0.2719,-0.2719,0,-0.2487,-0.2533,-0.264,-0.2671,-0.2736,-0.2833,-0.2891,-0.2956,-0.3023,-0.3037,-0.309,-0.3062,-0.3035,-0.2958,-0.2895,-0.2739,-0.276,-0.2658,-0.2611,-0.2544,-0.2531,-0.2497,-0.2526,-0.2714,-0.2715,-0.2716,-0.2717,0,-0.2418,-0.2498,-0.256,-0.2678,-0.271,-0.2745,-0.2854,-0.2891,-0.2969,-0.2979,-0.2986,-0.3016,-0.2918,-0.2869,-0.2747,-0.2688,-0.2515,-0.2506,-0.2431,-0.2378,-0.2259,-0.2292,-0.2168,-0.2109,-0.2347,-0.2344,-0.2342,0,-0.2389,-0.2415,-0.252,-0.2543,-0.2589,-0.2657,-0.2704,-0.283,-0.286,-0.2918,-0.2899,-0.2856,-0.2787,-0.2607,-0.2496,-0.2358,-0.2371,-0.2202,-0.2239,-0.2232,-0.2234,-0.2267,-0.2229,-0.2093,-0.2089,-0.2086,-0.2083,0,-0.2313,-0.2341,-0.2384,-0.2435,-0.248,-0.2534,-0.2602,-0.2627,-0.2743,-0.275,-0.2716,-0.2675,-0.2547,-0.2372,-0.2234,-0.2142,-0.216,-0.2128,-0.2131,-0.204,-0.2059,-0.1984,-0.2205,-0.2053,-0.2056,-0.2058,-0.206,-0.2061,-0.2221,-0.2222,-0.2268,-0.2301,-0.2352,-0.2375,-0.2362,-0.2431,-0.2441,-0.2417,-0.247,-0.237,-0.2287,-0.2082,-0.1993,-0.1843,-0.1913,-0.1798,-0.1839,-0.1873,-0.182,-0.1979,-0.1773,-0.1775,-0.1776,-0.1777,-0.1778,0,-0.2104,-0.2115,-0.2138,-0.2166,-0.2155,-0.223,-0.2261,-0.2211,-0.2151,-0.217,-0.2111,-0.203,-0.1877,-0.1825,-0.1683,-0.1594,-0.1574,-0.1557,-0.1596,-0.1571,-0.1697,-0.1692,-0.1446,-0.1446,-0.1446,-0.1446,-0.1446,-0.1446,-0.2041,-0.201,-0.2022,-0.1951,-0.1964,-0.1889,-0.1866,-0.1809,-0.179,-0.1682,-0.1654,-0.1682,-0.1659,-0.1716,-0.158,-0.1494,-0.1476,-0.141,-0.1446,-0.1571,-0.1598,-0.1624,-0.1625,-0.1369,-0.1369,-0.1263,-0.1263,-0.1262]},{"header":{"parameterUnit":"m.s-1","parameterCategory":2,"la1":30.2991,"la2":30.254,"lo1":-89.0895,"lo2":-89.0444,"dy":0.0017,"dx":0.0017,"nx":28,"ny":28,"refTime":"2024-02-08T03:00:00:Z","depth":"0","parameterNumber":3,"parameterNumberName":"V-component_of_CURRENTS"},"data":[0,0,0,0,0,0,0,0,0,0,0,0,0,0,0,0,0,0,0,0,0,0,0,0,0,0,0,0,0,0,0,0,0,0,0,0,0,0,0,0,0,0,0,0,0,0,0,0,0,0,0,0,0,0,0,0,0,0,-0.02,-0.0199,0,-0.0119,-0.0118,-0.0117,-0.0055,-0.0055,-0.0055,-0.0055,0.0147,0.0152,0.0157,0,0,0,0,0,0,0,0,0,0,0,0,0,-0.0232,-0.0232,-0.02,-0.0199,-0.0199,-0.0119,-0.0118,-0.0116,-0.0055,-0.0055,-0.0055,-0.0054,0.0145,0.0151,0.0157,0,0,0,0,0,0,0,0,0,0,0,0,0,-0.0188,-0.0232,-0.02,-0.0161,-0.0157,-0.012,-0.0118,-0.0116,-0.0055,-0.0055,-0.0055,-0.0054,0.0143,0.015,0.0158,0.0197,0,0,0.0181,0.0185,0,0,0,0,0,0,0,0,-0.0191,-0.0187,-0.0167,-0.0164,-0.0159,-0.01,-0.0055,-0.0006,-0.0056,-0.0091,-0.0055,-0.0054,0.0073,0.0086,0.0104,0.0206,0.0215,0.0182,0.0187,0.019,0.0192,0,0,0,0,0,0,0,-0.0194,-0.019,-0.0165,-0.0167,-0.0162,-0.0124,-0.0117,-0.0046,-0.0007,-0.0088,-0.0084,-0.008,0.0077,0.0096,0.0109,0.0218,0.0182,0.0189,0.0193,0.0196,0.0403,0.0404,0,0,0,0,0,0,-0.0215,-0.0193,-0.0167,-0.0163,-0.0178,-0.0124,-0.0117,-0.0117,-0.0011,0.0004,-0.008,-0.0077,0.0083,0.01,0.0117,0.0191,0.019,0.0197,0.0201,0.0402,0.0403,0.0404,0,0,0,0,0,0,-0.0216,-0.0213,-0.0171,-0.0178,-0.017,-0.0125,-0.0124,-0.0115,-0.0097,-0.0007,0.0011,-0.0072,0.0084,0.0106,0.0172,0.0199,0.0201,0.0207,0.0401,0.0402,0.0404,0.0328,0,0,0,0,0,0,-0.0217,-0.0214,-0.0219,-0.018,-0.0171,-0.0157,-0.0125,-0.0114,-0.0096,-0.0092,0.0006,0.0025,0.0086,0.016,0.0179,0.021,0.0213,0.04,0.0402,0.0403,0.0329,0.0326,0.0324,0,0,0,0,0,-0.0218,-0.0233,-0.022,-0.0217,-0.018,-0.0158,-0.015,-0.0113,-0.0097,-0.0093,-0.003,0.0022,0.0186,0.0166,0.0189,0.0222,0.0399,0.0401,0.0403,0.033,0.0327,0.0324,0,0,0,0,0,0,-0.0247,-0.0227,-0.0212,-0.0219,-0.0194,-0.0149,-0.0144,-0.012,-0.0068,-0.006,0.0025,0.0049,0.0118,0.0178,0.0155,0.0288,0.0305,0.0312,0.0242,0.024,0.0237,0.0235,0.022,0,0,0,0,0,-0.0258,-0.0263,-0.0234,-0.0237,-0.0229,-0.0187,-0.0173,-0.015,-0.0103,-0.0081,-0.0016,0.0066,0.0145,0.0194,0.0263,0.0334,0.0385,0.0374,0.0371,0.0369,0.0384,0.0472,0.0478,0.0411,0.0411,0.0411,0,0,-0.0269,-0.026,-0.026,-0.0244,-0.022,-0.0213,-0.0177,-0.0163,-0.0144,-0.0064,-0.0016,0.0052,0.0158,0.0232,0.0271,0.0287,0.0408,0.0371,0.0368,0.0385,0.0475,0.0481,0.0487,0.0412,0.0412,0.0412,0,0,-0.03,-0.0286,-0.0302,-0.0289,-0.0267,-0.0236,-0.0237,-0.0196,-0.0164,-0.012,-0.0047,0.0035,0.0135,0.0228,0.0288,0.0318,0.0382,0.0341,0.0341,0.0425,0.0431,0.0437,0.0474,0.0484,0.0351,0.035,0.035,0,-0.0314,-0.0331,-0.0302,-0.0314,-0.0307,-0.0251,-0.0262,-0.0217,-0.0159,-0.0115,-0.0116,0.0064,0.0142,0.0274,0.0283,0.0316,0.0351,0.0338,0.042,0.0427,0.0435,0.0472,0.0484,0.0347,0.0347,0.0348,0.0348,0,-0.0359,-0.0369,-0.0377,-0.037,-0.0354,-0.0356,-0.03,-0.026,-0.0219,-0.0164,-0.0055,0.0046,0.0163,0.0201,0.0252,0.0363,0.0363,0.0392,0.042,0.0437,0.0474,0.0488,0.0342,0.0343,0.0344,0.0345,0,0,-0.04,-0.0409,-0.0411,-0.0421,-0.0388,-0.0381,-0.033,-0.0262,-0.0208,-0.0139,-0.0061,0.0076,0.0138,0.0211,0.0296,0.0377,0.0444,0.0401,0.0407,0.0422,0.0593,0.0575,0.0588,0.0479,0.0482,0.0485,0.0583,0,-0.0444,-0.0491,-0.047,-0.0491,-0.0508,-0.0436,-0.0387,-0.0309,-0.023,-0.0138,-0.0003,0.0091,0.0142,0.0197,0.029,0.0414,0.0484,0.0413,0.0589,0.0594,0.0565,0.0606,0.062,0.0709,0.0598,0.06,0.0602,0,-0.0495,-0.0521,-0.0565,-0.055,-0.0545,-0.0534,-0.0438,-0.0391,-0.0229,-0.0161,-0.0032,0.0065,0.0219,0.0238,0.0456,0.0402,0.0492,0.0574,0.058,0.0608,0.0604,0.0685,0.074,0.0863,0.0624,0.0622,0.062,0,-0.0555,-0.058,-0.062,-0.0623,-0.0592,-0.057,-0.053,-0.0395,-0.0336,-0.0175,-0.0113,0.0074,0.0167,0.0317,0.0477,0.0471,0.0688,0.0705,0.0772,0.0769,0.0843,0.0843,0.1034,0.0851,0.0851,0.085,0.085,0,-0.0617,-0.0644,-0.0654,-0.0679,-0.0692,-0.0638,-0.0597,-0.0514,-0.038,-0.0303,-0.0138,-0.0045,0.0191,0.0341,0.0477,0.066,0.069,0.0786,0.0811,0.0811,0.0807,0.0968,0.1017,0.0854,0.0853,0.0852,0.0852,0,-0.068,-0.0687,-0.0736,-0.0731,-0.073,-0.0739,-0.0677,-0.0627,-0.0495,-0.0391,-0.0347,-0.012,0.0076,0.029,0.054,0.0654,0.0908,0.088,0.0836,0.0855,0.1025,0.1068,0.1284,0.1369,0.0983,0.0984,0.0984,0,-0.0717,-0.0754,-0.0797,-0.0827,-0.0833,-0.0832,-0.0812,-0.07,-0.0638,-0.0443,-0.0394,-0.018,-0.0009,0.0338,0.0583,0.0827,0.0938,0.0963,0.0974,0.1053,0.1122,0.1148,0.1206,0.103,0.103,0.1031,0.1031,0,-0.0787,-0.0803,-0.0845,-0.0915,-0.0933,-0.0942,-0.0906,-0.0874,-0.0722,-0.0616,-0.045,-0.0305,0.0048,0.036,0.0673,0.0811,0.1054,0.098,0.1113,0.1221,0.1219,0.1304,0.0904,0.1036,0.1036,0.1036,0.1035,0.1035,-0.0828,-0.088,-0.0936,-0.0995,-0.1024,-0.1032,-0.1021,-0.0953,-0.0865,-0.0676,-0.0529,-0.0279,0.018,0.0641,0.0806,0.1132,0.1116,0.1231,0.1287,0.1312,0.138,0.0954,0.1079,0.1079,0.1079,0.1078,0.1078,0,-0.0877,-0.0935,-0.1005,-0.1069,-0.1109,-0.11,-0.106,-0.1012,-0.0918,-0.0722,-0.0536,-0.0034,0.0395,0.08,0.1278,0.1447,0.1509,0.152,0.1596,0.1652,0.1334,0.132,0.1442,0.1442,0.1442,0.1442,0.1442,0.1442,-0.0903,-0.0989,-0.1031,-0.1123,-0.116,-0.117,-0.1144,-0.1057,-0.0907,-0.0601,-0.0305,-0.0045,0.0528,0.1309,0.1737,0.1764,0.1937,0.1889,0.1996,0.1796,0.1774,0.1753,0.1755,0.1966,0.1967,0.2308,0.2312,0.2314]}],[{"header":{"parameterUnit":"m.s-1","parameterCategory":2,"la1":30.2991,"la2":30.254,"lo1":-89.0895,"lo2":-89.0444,"dy":0.0017,"dx":0.0017,"nx":28,"ny":28,"refTime":"2024-02-08T03:00:00:Z","depth":"2","parameterNumber":2,"parameterNumberName":"U-component_of_CURRENTS"},"data":[0,0,0,0,0,0,0,0,0,0,0,0,0,0,0,0,0,0,0,0,0,0,0,0,0,0,0,0,0,0,0,0,0,0,0,0,0,0,0,0,0,0,0,0,0,0,0,0,0,0,0,0,0,0,0,0,0,0,-0.2086,-0.2086,0,-0.2129,-0.2129,-0.213,-0.2137,-0.2137,-0.2136,-0.2136,-0.2178,-0.218,-0.2181,0,0,0,0,0,0,0,0,0,0,0,0,0,-0.202,-0.2021,-0.2086,-0.2086,-0.2087,-0.2129,-0.2129,-0.213,-0.2137,-0.2137,-0.2136,-0.2136,-0.2178,-0.2179,-0.2181,0,0,0,0,0,0,0,0,0,0,0,0,0,-0.2053,-0.2021,-0.2085,-0.2097,-0.2098,-0.2129,-0.2129,-0.213,-0.2137,-0.2137,-0.2136,-0.2136,-0.2177,-0.2179,-0.2181,-0.22,0,0,-0.2187,-0.2188,0,0,0,0,0,0,0,0,-0.2051,-0.2055,-0.2095,-0.2096,-0.2098,-0.2129,-0.2122,-0.2154,-0.2137,-0.212,-0.2136,-0.2136,-0.2163,-0.2166,-0.2173,-0.2202,-0.2204,-0.2188,-0.2189,-0.219,-0.219,0,0,0,0,0,0,0,-0.2048,-0.2053,-0.2101,-0.2095,-0.2098,-0.2104,-0.2108,-0.2128,-0.2142,-0.2122,-0.2123,-0.2131,-0.2164,-0.2171,-0.2174,-0.2204,-0.2187,-0.2189,-0.219,-0.2191,-0.2294,-0.2295,0,0,0,0,0,0,-0.2047,-0.2051,-0.21,-0.2102,-0.2075,-0.2105,-0.211,-0.2118,-0.2141,-0.2145,-0.2131,-0.2131,-0.2167,-0.2171,-0.2175,-0.2229,-0.219,-0.2191,-0.2193,-0.2292,-0.2294,-0.2296,0,0,0,0,0,0,-0.2045,-0.2051,-0.2098,-0.2079,-0.2086,-0.2107,-0.2116,-0.2119,-0.2128,-0.2149,-0.2152,-0.2138,-0.2167,-0.2172,-0.2208,-0.2229,-0.2192,-0.2194,-0.2291,-0.2293,-0.2295,-0.2317,0,0,0,0,0,0,-0.2043,-0.205,-0.2053,-0.2079,-0.2087,-0.2128,-0.2116,-0.212,-0.2134,-0.2135,-0.2156,-0.2159,-0.2167,-0.2205,-0.221,-0.2231,-0.2196,-0.2289,-0.2292,-0.2294,-0.2314,-0.232,-0.2324,0,0,0,0,0,-0.204,-0.2052,-0.2053,-0.2059,-0.2091,-0.213,-0.2135,-0.2147,-0.2135,-0.2151,-0.2165,-0.2159,-0.2227,-0.2208,-0.2213,-0.2236,-0.2287,-0.2291,-0.2294,-0.2312,-0.2319,-0.2324,0,0,0,0,0,0,-0.2023,-0.2055,-0.2056,-0.2075,-0.2104,-0.2132,-0.2143,-0.2149,-0.2171,-0.2168,-0.2177,-0.2183,-0.2223,-0.223,-0.2209,-0.2276,-0.2257,-0.2261,-0.2268,-0.2275,-0.228,-0.2282,-0.2197,0,0,0,0,0,-0.2021,-0.2038,-0.207,-0.2085,-0.2099,-0.2118,-0.2132,-0.2146,-0.2169,-0.2177,-0.2193,-0.2214,-0.2242,-0.2257,-0.2283,-0.2317,-0.2295,-0.2337,-0.2342,-0.2346,-0.2354,-0.2344,-0.2348,-0.2307,-0.2307,-0.2307,0,0,-0.2017,-0.2037,-0.2046,-0.2083,-0.21,-0.2137,-0.2126,-0.2156,-0.2187,-0.218,-0.2221,-0.2232,-0.2256,-0.2299,-0.2317,-0.2305,-0.2343,-0.2351,-0.2354,-0.2359,-0.2348,-0.2352,-0.2355,-0.231,-0.2309,-0.2309,0,0,-0.2031,-0.2037,-0.2062,-0.2091,-0.2128,-0.2148,-0.2157,-0.2192,-0.2206,-0.2248,-0.2252,-0.2276,-0.2319,-0.234,-0.2355,-0.2404,-0.237,-0.2414,-0.244,-0.2431,-0.2433,-0.2435,-0.2386,-0.2384,-0.2415,-0.2415,-0.2416,0,-0.2025,-0.2059,-0.2075,-0.2113,-0.2138,-0.2154,-0.2192,-0.2218,-0.2261,-0.2272,-0.2268,-0.2322,-0.234,-0.2385,-0.2408,-0.2415,-0.2389,-0.241,-0.2434,-0.2436,-0.2438,-0.2387,-0.2384,-0.2417,-0.2417,-0.2417,-0.2417,0,-0.2064,-0.2093,-0.211,-0.2162,-0.2194,-0.2228,-0.2268,-0.2294,-0.2305,-0.2325,-0.2364,-0.2385,-0.2414,-0.2427,-0.2436,-0.2467,-0.2436,-0.2438,-0.2411,-0.2443,-0.2388,-0.2384,-0.2419,-0.2419,-0.2418,-0.2418,0,0,-0.2042,-0.2122,-0.2127,-0.2153,-0.222,-0.2246,-0.2302,-0.2348,-0.2368,-0.2401,-0.2426,-0.2475,-0.2468,-0.2487,-0.2493,-0.2493,-0.2478,-0.2476,-0.2475,-0.2413,-0.2424,-0.2345,-0.2333,-0.248,-0.2481,-0.2481,-0.237,0,-0.2064,-0.2131,-0.2173,-0.2234,-0.2266,-0.2306,-0.2354,-0.2397,-0.2422,-0.2452,-0.2466,-0.2497,-0.2497,-0.2507,-0.251,-0.2496,-0.2475,-0.2506,-0.2416,-0.2413,-0.2327,-0.2329,-0.2179,-0.2063,-0.2366,-0.2366,-0.2365,0,-0.208,-0.2124,-0.2185,-0.2256,-0.2274,-0.2317,-0.2371,-0.2419,-0.2469,-0.2487,-0.2512,-0.2524,-0.2545,-0.2534,-0.2504,-0.2521,-0.2478,-0.2453,-0.2447,-0.2367,-0.2328,-0.2089,-0.2045,-0.2359,-0.2359,-0.236,-0.236,0,-0.2033,-0.2124,-0.2166,-0.2194,-0.2285,-0.2313,-0.2358,-0.2418,-0.2445,-0.2503,-0.2513,-0.2542,-0.2542,-0.2517,-0.2473,-0.2489,-0.2411,-0.2422,-0.2298,-0.2289,-0.2142,-0.2121,-0.2384,-0.2384,-0.2384,-0.2385,-0.2385,0,-0.2026,-0.2055,-0.2145,-0.2167,-0.2208,-0.2285,-0.2324,-0.2374,-0.2436,-0.2452,-0.2517,-0.2516,-0.254,-0.2503,-0.2465,-0.2356,-0.2396,-0.2294,-0.2262,-0.2143,-0.2125,-0.2378,-0.2378,-0.238,-0.2381,-0.2382,-0.2383,0,-0.1957,-0.2023,-0.2066,-0.2159,-0.2184,-0.2206,-0.2288,-0.2312,-0.2387,-0.2408,-0.2425,-0.2483,-0.2439,-0.2423,-0.2369,-0.2321,-0.2245,-0.2191,-0.2033,-0.1985,-0.2128,-0.2132,-0.2047,-0.2043,-0.204,-0.2038,-0.2035,0,-0.1927,-0.1944,-0.2027,-0.2042,-0.2081,-0.2131,-0.216,-0.2262,-0.2285,-0.2362,-0.2355,-0.2359,-0.2321,-0.2216,-0.2144,-0.2039,-0.2124,-0.1844,-0.1865,-0.2119,-0.2096,-0.2105,-0.2112,-0.1659,-0.1654,-0.165,-0.1646,0,-0.1852,-0.1879,-0.1909,-0.1942,-0.1974,-0.2008,-0.206,-0.2072,-0.2176,-0.2199,-0.2203,-0.2188,-0.2118,-0.1962,-0.1859,-0.1783,-0.1861,-0.1757,-0.205,-0.1783,-0.1749,-0.1729,-0.1749,-0.161,-0.1613,-0.1616,-0.1618,-0.1619,-0.1771,-0.1767,-0.18,-0.1816,-0.1852,-0.1858,-0.1835,-0.1893,-0.1903,-0.19,-0.1981,-0.1904,-0.1893,-0.1657,-0.1554,-0.1477,-0.1603,-0.1538,-0.1553,-0.1571,-0.1562,-0.1526,-0.134,-0.1342,-0.1344,-0.1345,-0.1347,0,-0.1657,-0.1662,-0.1672,-0.1681,-0.1655,-0.1725,-0.1737,-0.1685,-0.1639,-0.1673,-0.165,-0.1477,-0.1378,-0.1368,-0.1195,-0.1158,-0.1166,-0.111,-0.113,-0.1166,-0.1198,-0.1173,-0.0846,-0.0845,-0.0843,-0.0842,0,0,-0.1597,-0.1556,-0.1559,-0.1471,-0.1476,-0.1397,-0.1371,-0.1321,-0.1307,-0.1223,-0.1191,-0.129,-0.1327,-0.1095,-0.1033,-0.0914,-0.1032,-0.0864,-0.1263,-0.1322,-0.1353,-0.1437,-0.1436,0,0,0,0,0]},{"header":{"parameterUnit":"m.s-1","parameterCategory":2,"la1":30.2991,"la2":30.254,"lo1":-89.0895,"lo2":-89.0444,"dy":0.0017,"dx":0.0017,"nx":28,"ny":28,"refTime":"2024-02-08T03:00:00:Z","depth":"2","parameterNumber":3,"parameterNumberName":"V-component_of_CURRENTS"},"data":[0,0,0,0,0,0,0,0,0,0,0,0,0,0,0,0,0,0,0,0,0,0,0,0,0,0,0,0,0,0,0,0,0,0,0,0,0,0,0,0,0,0,0,0,0,0,0,0,0,0,0,0,0,0,0,0,0,0,-0.0293,-0.0292,0,-0.023,-0.0229,-0.0228,-0.0173,-0.0172,-0.0172,-0.0172,-0.0033,-0.003,-0.0027,0,0,0,0,0,0,0,0,0,0,0,0,0,-0.031,-0.031,-0.0293,-0.0292,-0.0292,-0.023,-0.0229,-0.0228,-0.0173,-0.0172,-0.0172,-0.0171,-0.0034,-0.0031,-0.0027,0,0,0,0,0,0,0,0,0,0,0,0,0,-0.0278,-0.031,-0.0293,-0.0259,-0.0256,-0.023,-0.0229,-0.0227,-0.0173,-0.0172,-0.0172,-0.0171,-0.0036,-0.0031,-0.0026,-0.0006,0,0,-0.0011,-0.0009,0,0,0,0,0,0,0,0,-0.028,-0.0277,-0.0265,-0.0262,-0.0258,-0.0211,-0.0184,-0.0151,-0.0173,-0.0201,-0.0172,-0.0171,-0.0088,-0.0079,-0.0065,0.0,0.0006,-0.001,-0.0007,-0.0005,-0.0004,0,0,0,0,0,0,0,-0.0282,-0.0279,-0.0265,-0.0264,-0.026,-0.0228,-0.0223,-0.0177,-0.0145,-0.0199,-0.0195,-0.0193,-0.0085,-0.007,-0.0061,0.0008,-0.001,-0.0006,-0.0003,-0.0001,0.0109,0.0109,0,0,0,0,0,0,-0.0299,-0.0282,-0.0267,-0.0263,-0.0271,-0.0229,-0.0223,-0.0224,-0.0147,-0.0136,-0.0194,-0.0191,-0.0079,-0.0067,-0.0056,-0.0026,-0.0005,-0.0,0.0002,0.0109,0.0109,0.0109,0,0,0,0,0,0,-0.03,-0.0299,-0.027,-0.0273,-0.0267,-0.023,-0.0231,-0.0223,-0.0208,-0.0144,-0.0131,-0.0187,-0.0078,-0.0063,-0.0024,-0.0021,0.0002,0.0006,0.0109,0.0109,0.0109,0.0032,0,0,0,0,0,0,-0.0301,-0.03,-0.0305,-0.0274,-0.0268,-0.0265,-0.0232,-0.0223,-0.0209,-0.0204,-0.0134,-0.0121,-0.0076,-0.0032,-0.0019,-0.0013,0.001,0.0109,0.0109,0.0109,0.0035,0.003,0.0025,0,0,0,0,0,-0.0302,-0.0318,-0.0305,-0.0304,-0.0277,-0.0266,-0.026,-0.0228,-0.0209,-0.021,-0.0164,-0.0123,-0.0023,-0.0029,-0.0013,-0.0006,0.0109,0.0109,0.0109,0.0037,0.0031,0.0025,0,0,0,0,0,0,-0.0327,-0.0313,-0.0299,-0.0309,-0.0293,-0.0258,-0.0256,-0.0234,-0.0198,-0.019,-0.0127,-0.0111,-0.0075,-0.0032,-0.0039,0.0026,0.0051,0.0054,-0.0008,-0.0014,-0.0019,-0.0027,0.0014,0,0,0,0,0,-0.0336,-0.0344,-0.0323,-0.0329,-0.0325,-0.029,-0.028,-0.0261,-0.0228,-0.0211,-0.0165,-0.0111,-0.0064,-0.0034,0.0009,0.0044,0.0095,0.0061,0.0056,0.0051,0.0055,0.0141,0.0144,0.0108,0.0108,0.0108,0,0,-0.0346,-0.0341,-0.0343,-0.0335,-0.0316,-0.032,-0.0282,-0.0275,-0.0271,-0.0201,-0.0179,-0.013,-0.0061,-0.0026,-0.0004,0.0013,0.0081,0.0051,0.0046,0.0054,0.0141,0.0144,0.0148,0.0108,0.0108,0.0108,0,0,-0.0378,-0.0366,-0.0386,-0.0379,-0.0365,-0.0343,-0.0346,-0.0317,-0.0296,-0.0274,-0.0219,-0.0171,-0.0107,-0.0053,-0.0017,-0.0021,0.0047,-0.0006,-0.0028,0.0053,0.0057,0.0061,0.0098,0.0106,-0.0002,-0.0002,-0.0002,0,-0.039,-0.0413,-0.0388,-0.0407,-0.0407,-0.036,-0.0379,-0.0351,-0.0313,-0.0291,-0.0278,-0.017,-0.0118,-0.0052,-0.0056,-0.0031,0.0014,-0.0015,0.0047,0.0052,0.0058,0.0096,0.0106,-0.0006,-0.0006,-0.0005,-0.0005,0,-0.0441,-0.0455,-0.0466,-0.0472,-0.0466,-0.0475,-0.0442,-0.0423,-0.0391,-0.0356,-0.0297,-0.0225,-0.0154,-0.0132,-0.0095,-0.0028,-0.0013,0.0024,0.0059,0.0057,0.0096,0.0108,-0.0011,-0.001,-0.0009,-0.0008,0,0,-0.0478,-0.05,-0.0503,-0.0518,-0.0504,-0.0506,-0.0492,-0.0463,-0.0441,-0.0391,-0.0353,-0.0273,-0.0221,-0.0176,-0.0114,-0.0043,0.0019,0.0002,0.0008,0.0032,0.0173,0.0176,0.019,0.0073,0.0075,0.0077,0.0173,0,-0.0524,-0.0581,-0.0571,-0.0607,-0.063,-0.0585,-0.0573,-0.0535,-0.0485,-0.0435,-0.0341,-0.0284,-0.024,-0.02,-0.0124,-0.0005,0.0052,-0.0013,0.0178,0.0183,0.0183,0.0205,0.0171,0.0255,0.0185,0.0187,0.0189,0,-0.0579,-0.061,-0.0664,-0.0675,-0.0679,-0.0685,-0.0648,-0.0632,-0.0541,-0.0498,-0.0415,-0.0337,-0.0228,-0.0191,0.0001,-0.0039,0.0053,0.0138,0.0145,0.0188,0.021,0.0255,0.028,0.0209,0.0208,0.0206,0.0205,0,-0.0629,-0.067,-0.0717,-0.0726,-0.073,-0.0731,-0.0718,-0.065,-0.0627,-0.053,-0.049,-0.0353,-0.0272,-0.013,0.0034,0.0029,0.0242,0.0261,0.0342,0.0342,0.0372,0.037,0.0388,0.0388,0.0388,0.0388,0.0387,0,-0.0688,-0.0723,-0.0746,-0.0776,-0.0812,-0.0787,-0.0789,-0.0751,-0.0679,-0.0641,-0.0525,-0.0455,-0.0245,-0.0101,0.0032,0.0223,0.0244,0.0344,0.0381,0.0339,0.0334,0.0349,0.0343,0.0391,0.0391,0.039,0.0389,0,-0.074,-0.0757,-0.0814,-0.0836,-0.0844,-0.0868,-0.0855,-0.0843,-0.0768,-0.071,-0.068,-0.0507,-0.0313,-0.0124,0.0121,0.0225,0.04,0.0454,0.0365,0.039,0.0437,0.0426,0.0559,0.0561,0.0562,0.0563,0.0563,0,-0.0773,-0.0811,-0.0868,-0.0902,-0.0918,-0.0943,-0.095,-0.0897,-0.0874,-0.0739,-0.071,-0.0516,-0.0369,-0.0032,0.0197,0.0427,0.0433,0.0511,0.0503,0.0439,0.0462,0.0449,0.0437,0.0498,0.0498,0.0498,0.0498,0,-0.0833,-0.0851,-0.0898,-0.0972,-0.1006,-0.1038,-0.104,-0.1032,-0.0947,-0.0874,-0.0738,-0.061,-0.0286,-0.0013,0.0278,0.04,0.0473,0.052,0.052,0.0452,0.0388,0.0407,0.0397,0.0499,0.0499,0.0499,0.0499,0.0499,-0.0865,-0.0913,-0.0972,-0.1037,-0.1081,-0.1113,-0.1121,-0.1089,-0.1039,-0.0898,-0.0775,-0.0555,-0.0292,0.0133,0.034,0.0522,0.0518,0.0562,0.0559,0.0557,0.0525,0.0466,0.0583,0.0583,0.0584,0.0584,0.0584,0,-0.0902,-0.0957,-0.1029,-0.1103,-0.1151,-0.1159,-0.1161,-0.1129,-0.1058,-0.0899,-0.0742,-0.0449,-0.0149,0.0115,0.0414,0.0587,0.0572,0.0601,0.0556,0.0554,0.0552,0.0517,0.0575,0.0576,0.0577,0.0577,0,0,-0.0923,-0.1001,-0.1043,-0.1139,-0.1185,-0.1214,-0.1207,-0.1137,-0.1018,-0.0845,-0.0672,-0.0447,-0.0131,0.0082,0.0302,0.0456,0.0456,0.0457,0.0443,0.0361,0.0358,0.0504,0.0445,0,0,0,0,0]}],[{"header":{"parameterUnit":"m.s-1","parameterCategory":2,"la1":30.2991,"la2":30.254,"lo1":-89.0895,"lo2":-89.0444,"dy":0.0017,"dx":0.0017,"nx":28,"ny":28,"refTime":"2024-02-08T03:00:00:Z","depth":"4","parameterNumber":2,"parameterNumberName":"U-component_of_CURRENTS"},"data":[0,0,0,0,0,0,0,0,0,0,0,0,0,0,0,0,0,0,0,0,0,0,0,0,0,0,0,0,0,0,0,0,0,0,0,0,0,0,0,0,0,0,0,0,0,0,0,0,0,0,0,0,0,0,0,0,0,0,-0.1412,-0.1413,0,-0.1465,-0.1465,-0.1466,-0.1509,-0.1509,-0.151,-0.151,-0.155,-0.1551,-0.1551,0,0,0,0,0,0,0,0,0,0,0,0,0,-0.1348,-0.1349,-0.1412,-0.1413,-0.1414,-0.1465,-0.1465,-0.1466,-0.1509,-0.1509,-0.151,-0.1511,-0.155,-0.1551,-0.1552,0,0,0,0,0,0,0,0,0,0,0,0,0,-0.1384,-0.1349,-0.1412,-0.1442,-0.1446,-0.1465,-0.1465,-0.1466,-0.1508,-0.1509,-0.151,-0.1511,-0.155,-0.1551,-0.1552,-0.1539,0,0,-0.1554,-0.1554,0,0,0,0,0,0,0,0,-0.1382,-0.1386,-0.1437,-0.144,-0.1444,-0.1482,-0.1458,-0.149,-0.1508,-0.1483,-0.151,-0.1511,-0.1527,-0.153,-0.1536,-0.1541,-0.1543,-0.1554,-0.1555,-0.1555,-0.1555,0,0,0,0,0,0,0,-0.138,-0.1384,-0.1431,-0.1438,-0.1442,-0.1453,-0.1459,-0.1464,-0.1498,-0.1485,-0.1489,-0.1497,-0.1529,-0.1535,-0.1537,-0.1543,-0.1554,-0.1555,-0.1555,-0.1556,-0.1615,-0.1616,0,0,0,0,0,0,-0.1375,-0.1382,-0.143,-0.1433,-0.1416,-0.1454,-0.146,-0.1468,-0.1498,-0.1504,-0.1496,-0.1499,-0.1533,-0.1536,-0.1538,-0.1595,-0.1555,-0.1556,-0.1556,-0.1614,-0.1615,-0.1616,0,0,0,0,0,0,-0.1374,-0.1379,-0.1428,-0.141,-0.1417,-0.1454,-0.1462,-0.1469,-0.1501,-0.1507,-0.1513,-0.1525,-0.1534,-0.1537,-0.1577,-0.1594,-0.1556,-0.1557,-0.1612,-0.1614,-0.1615,-0.1663,0,0,0,0,0,0,-0.1372,-0.1378,-0.1393,-0.141,-0.1418,-0.146,-0.1462,-0.1469,-0.1503,-0.1508,-0.1533,-0.1536,-0.1535,-0.1576,-0.1578,-0.1594,-0.1557,-0.1611,-0.1613,-0.1615,-0.166,-0.1666,-0.1671,0,0,0,0,0,-0.1369,-0.1384,-0.1393,-0.14,-0.1434,-0.1461,-0.1467,-0.1494,-0.1504,-0.1525,-0.1549,-0.1537,-0.159,-0.1578,-0.158,-0.1597,-0.161,-0.1612,-0.1615,-0.1657,-0.1665,-0.1671,0,0,0,0,0,0,-0.1364,-0.139,-0.1401,-0.1423,-0.145,-0.1469,-0.1491,-0.1507,-0.1541,-0.1552,-0.1556,-0.1561,-0.16,-0.1594,-0.1581,-0.162,-0.1595,-0.1598,-0.1627,-0.1634,-0.1639,-0.1625,-0.1558,0,0,0,0,0,-0.1368,-0.1389,-0.1413,-0.1434,-0.1448,-0.1473,-0.1491,-0.1512,-0.1538,-0.1555,-0.1574,-0.1591,-0.1605,-0.1619,-0.1631,-0.1654,-0.1634,-0.1665,-0.167,-0.1675,-0.1665,-0.1664,-0.1668,-0.1624,-0.1624,-0.1624,0,0,-0.1373,-0.139,-0.1403,-0.1436,-0.1456,-0.1484,-0.1487,-0.1524,-0.1553,-0.1552,-0.1604,-0.1615,-0.1617,-0.1649,-0.1664,-0.165,-0.1679,-0.1678,-0.1682,-0.167,-0.1667,-0.1671,-0.1674,-0.1626,-0.1625,-0.1625,0,0,-0.1387,-0.1408,-0.1429,-0.1454,-0.1493,-0.1508,-0.1525,-0.1561,-0.1586,-0.1632,-0.1636,-0.1659,-0.1691,-0.1691,-0.1694,-0.1735,-0.171,-0.1744,-0.176,-0.1759,-0.1762,-0.1765,-0.1747,-0.1748,-0.1745,-0.1745,-0.1745,0,-0.1394,-0.142,-0.1441,-0.1469,-0.1492,-0.1522,-0.1551,-0.1579,-0.1629,-0.1641,-0.1659,-0.1695,-0.1705,-0.1718,-0.174,-0.1745,-0.1738,-0.1735,-0.1765,-0.1767,-0.1769,-0.175,-0.175,-0.1748,-0.1747,-0.1747,-0.1747,0,-0.1416,-0.1449,-0.1465,-0.1508,-0.1537,-0.1569,-0.1605,-0.164,-0.1672,-0.1691,-0.1727,-0.1743,-0.1757,-0.1768,-0.1771,-0.1787,-0.1776,-0.1774,-0.1745,-0.1776,-0.1755,-0.1754,-0.1751,-0.175,-0.175,-0.1749,0,0,-0.1395,-0.1466,-0.1474,-0.15,-0.156,-0.158,-0.1631,-0.1667,-0.1688,-0.1736,-0.1755,-0.1788,-0.1792,-0.1794,-0.1797,-0.18,-0.1815,-0.18,-0.1799,-0.1777,-0.1808,-0.1697,-0.1684,-0.1827,-0.1827,-0.1827,-0.1789,0,-0.1406,-0.1458,-0.1495,-0.1549,-0.1574,-0.1619,-0.1657,-0.1696,-0.1729,-0.1757,-0.1769,-0.1795,-0.1803,-0.1815,-0.1822,-0.1822,-0.1816,-0.1825,-0.1785,-0.1783,-0.1676,-0.168,-0.1828,-0.1788,-0.1787,-0.1787,-0.1787,0,-0.1403,-0.1441,-0.1494,-0.1558,-0.1573,-0.1615,-0.1663,-0.1703,-0.1742,-0.1768,-0.179,-0.1803,-0.182,-0.1823,-0.1824,-0.1836,-0.1823,-0.1816,-0.1814,-0.1687,-0.1669,-0.1751,-0.1785,-0.1785,-0.1785,-0.1785,-0.1785,0,-0.1352,-0.1433,-0.1474,-0.15,-0.158,-0.1613,-0.1655,-0.1703,-0.1722,-0.1774,-0.1787,-0.1812,-0.1825,-0.1825,-0.1822,-0.1831,-0.1808,-0.1815,-0.1692,-0.1684,-0.1776,-0.1774,-0.1796,-0.1796,-0.1796,-0.1796,-0.1796,0,-0.1324,-0.1359,-0.146,-0.148,-0.1522,-0.1591,-0.1627,-0.1673,-0.1719,-0.1726,-0.1787,-0.1785,-0.1831,-0.1824,-0.1818,-0.1744,-0.1803,-0.1679,-0.1662,-0.1798,-0.1798,-0.1775,-0.1773,-0.1795,-0.1795,-0.1795,-0.1796,0,-0.1251,-0.1322,-0.1371,-0.1468,-0.1499,-0.1527,-0.1605,-0.1615,-0.1686,-0.1698,-0.1715,-0.1768,-0.1762,-0.1775,-0.1769,-0.1718,-0.1674,-0.163,-0.1763,-0.1756,-0.1551,-0.1552,-0.1481,-0.1477,-0.1473,-0.147,-0.1468,0,-0.1215,-0.1236,-0.1343,-0.1367,-0.1416,-0.1472,-0.1496,-0.1583,-0.1591,-0.1665,-0.1649,-0.1679,-0.1698,-0.1588,-0.1631,-0.1586,-0.157,-0.1537,-0.1547,-0.1526,-0.1517,-0.1524,-0.153,-0.1462,-0.1461,-0.146,-0.1459,0,-0.1136,-0.1187,-0.1226,-0.1275,-0.1317,-0.1349,-0.1399,-0.1392,-0.1478,-0.1559,-0.1537,-0.1527,-0.1509,-0.1503,-0.1474,-0.1449,-0.1557,-0.1498,-0.1505,-0.1515,-0.1501,-0.1498,-0.1508,-0.1446,-0.1448,-0.1449,-0.145,0,-0.1073,-0.1078,-0.1132,-0.1159,-0.1208,-0.1205,-0.1251,-0.1264,-0.1287,-0.1385,-0.1376,-0.142,-0.1489,-0.143,-0.1408,-0.1369,-0.135,-0.1311,-0.1328,-0.1343,-0.1316,-0.1279,-0.1125,0,0,0,0,0,-0.0999,-0.0988,-0.1007,-0.1028,-0.1069,-0.1093,-0.1167,-0.1216,-0.1308,-0.1252,-0.131,-0.1293,-0.1267,-0.1295,-0.1223,-0.1334,-0.1349,-0.1245,-0.1312,-0.1375,-0.139,-0.1372,0,0,0,0,0,0,-0.0948,-0.0961,-0.0963,-0.0904,-0.0893,-0.0917,-0.0961,-0.1032,-0.1012,-0.1122,-0.1112,-0.1203,-0.1192,-0.1275,-0.1189,-0.1196,-0.121,-0.1284,-0.1281,-0.1366,-0.138,-0.1392,-0.1379,0,0,0,0,0]},{"header":{"parameterUnit":"m.s-1","parameterCategory":2,"la1":30.2991,"la2":30.254,"lo1":-89.0895,"lo2":-89.0444,"dy":0.0017,"dx":0.0017,"nx":28,"ny":28,"refTime":"2024-02-08T03:00:00:Z","depth":"4","parameterNumber":3,"parameterNumberName":"V-component_of_CURRENTS"},"data":[0,0,0,0,0,0,0,0,0,0,0,0,0,0,0,0,0,0,0,0,0,0,0,0,0,0,0,0,0,0,0,0,0,0,0,0,0,0,0,0,0,0,0,0,0,0,0,0,0,0,0,0,0,0,0,0,0,0,-0.0235,-0.0235,0,-0.02,-0.0199,-0.0199,-0.0163,-0.0163,-0.0163,-0.0162,-0.0087,-0.0085,-0.0084,0,0,0,0,0,0,0,0,0,0,0,0,0,-0.0235,-0.0235,-0.0235,-0.0235,-0.0235,-0.02,-0.0199,-0.0199,-0.0163,-0.0163,-0.0163,-0.0162,-0.0088,-0.0085,-0.0083,0,0,0,0,0,0,0,0,0,0,0,0,0,-0.0219,-0.0235,-0.0235,-0.0215,-0.0213,-0.02,-0.0199,-0.0198,-0.0163,-0.0163,-0.0163,-0.0162,-0.0088,-0.0086,-0.0083,-0.0075,0,0,-0.0075,-0.0074,0,0,0,0,0,0,0,0,-0.022,-0.0219,-0.0218,-0.0216,-0.0214,-0.0188,-0.0172,-0.0156,-0.0163,-0.018,-0.0162,-0.0162,-0.0119,-0.0114,-0.0105,-0.0071,-0.0068,-0.0075,-0.0073,-0.0072,-0.0071,0,0,0,0,0,0,0,-0.0221,-0.022,-0.0219,-0.0218,-0.0215,-0.0195,-0.0192,-0.0168,-0.0149,-0.0178,-0.0176,-0.0176,-0.0117,-0.0108,-0.0103,-0.0067,-0.0075,-0.0072,-0.0071,-0.007,-0.0038,-0.0039,0,0,0,0,0,0,-0.0233,-0.0221,-0.022,-0.0218,-0.0218,-0.0195,-0.0192,-0.0194,-0.015,-0.0144,-0.0176,-0.0174,-0.0112,-0.0106,-0.01,-0.0108,-0.0072,-0.007,-0.0068,-0.0037,-0.0038,-0.0039,0,0,0,0,0,0,-0.0233,-0.0233,-0.0221,-0.022,-0.0218,-0.0196,-0.0199,-0.0194,-0.0187,-0.015,-0.0142,-0.0175,-0.0112,-0.0104,-0.009,-0.0104,-0.0068,-0.0066,-0.0036,-0.0037,-0.0038,-0.011,0,0,0,0,0,0,-0.0233,-0.0233,-0.0239,-0.0221,-0.0218,-0.0225,-0.0199,-0.0194,-0.0189,-0.0186,-0.0146,-0.0139,-0.0111,-0.0094,-0.0087,-0.01,-0.0064,-0.0035,-0.0037,-0.0038,-0.0107,-0.0114,-0.0119,0,0,0,0,0,-0.0233,-0.0248,-0.024,-0.024,-0.0227,-0.0226,-0.0223,-0.0204,-0.0189,-0.0194,-0.0168,-0.014,-0.0098,-0.0093,-0.0084,-0.0096,-0.0035,-0.0036,-0.0038,-0.0104,-0.0112,-0.0119,0,0,0,0,0,0,-0.025,-0.0246,-0.0236,-0.0248,-0.0242,-0.0222,-0.0225,-0.021,-0.0193,-0.0188,-0.0148,-0.0139,-0.0133,-0.0105,-0.0101,-0.0092,-0.0062,-0.0062,-0.0115,-0.0122,-0.0129,-0.0139,-0.0062,0,0,0,0,0,-0.0258,-0.0267,-0.0257,-0.0266,-0.0266,-0.0245,-0.0242,-0.023,-0.0213,-0.0205,-0.0179,-0.0152,-0.0133,-0.0121,-0.01,-0.0093,-0.0056,-0.0096,-0.0102,-0.0108,-0.0111,-0.0066,-0.0068,-0.0044,-0.0044,-0.0044,0,0,-0.0266,-0.0265,-0.027,-0.0271,-0.0261,-0.0273,-0.0242,-0.0243,-0.0252,-0.0199,-0.0201,-0.0173,-0.0137,-0.0133,-0.0127,-0.0111,-0.0096,-0.011,-0.0115,-0.0115,-0.0068,-0.007,-0.0072,-0.0045,-0.0045,-0.0045,0,0,-0.0293,-0.0287,-0.0307,-0.0308,-0.0305,-0.0295,-0.0299,-0.0285,-0.0278,-0.0276,-0.0243,-0.0225,-0.0196,-0.0176,-0.016,-0.0187,-0.0133,-0.018,-0.0217,-0.0173,-0.0175,-0.0175,-0.0137,-0.0134,-0.0181,-0.0181,-0.0181,0,-0.0303,-0.0326,-0.0312,-0.0332,-0.0339,-0.031,-0.0332,-0.0323,-0.0307,-0.0303,-0.0288,-0.0246,-0.0218,-0.0206,-0.0219,-0.0201,-0.0166,-0.0193,-0.0181,-0.0181,-0.018,-0.0141,-0.0136,-0.0185,-0.0185,-0.0184,-0.0184,0,-0.0347,-0.0364,-0.0376,-0.0393,-0.0397,-0.0412,-0.0401,-0.0401,-0.0386,-0.0371,-0.0359,-0.0319,-0.0291,-0.0283,-0.0259,-0.0247,-0.022,-0.0196,-0.0163,-0.0187,-0.0144,-0.0138,-0.019,-0.0189,-0.0188,-0.0187,0,0,-0.0371,-0.0402,-0.0407,-0.0426,-0.0432,-0.0441,-0.0454,-0.0457,-0.0461,-0.0439,-0.0438,-0.0409,-0.0377,-0.0357,-0.0321,-0.0287,-0.0258,-0.0246,-0.0242,-0.0209,-0.0161,-0.0138,-0.0129,-0.0227,-0.0226,-0.0225,-0.0134,0,-0.0409,-0.0464,-0.0466,-0.0511,-0.0536,-0.052,-0.0535,-0.053,-0.0512,-0.0503,-0.0458,-0.0442,-0.0407,-0.0392,-0.0355,-0.0277,-0.0244,-0.0285,-0.0141,-0.0137,-0.0114,-0.0122,-0.0223,-0.0129,-0.0128,-0.0127,-0.0126,0,-0.0451,-0.0483,-0.054,-0.0573,-0.0581,-0.0603,-0.0614,-0.0622,-0.0597,-0.058,-0.0549,-0.0505,-0.0458,-0.0423,-0.0306,-0.0331,-0.0259,-0.0198,-0.0193,-0.0141,-0.0102,-0.0096,-0.0114,-0.0115,-0.0116,-0.0117,-0.0117,0,-0.048,-0.0532,-0.0581,-0.0595,-0.0628,-0.0648,-0.0659,-0.0648,-0.0652,-0.0624,-0.0612,-0.0547,-0.05,-0.0411,-0.0284,-0.0293,-0.0142,-0.0135,-0.005,-0.0047,-0.0062,-0.0062,-0.0059,-0.0059,-0.006,-0.006,-0.006,0,-0.0519,-0.0558,-0.0603,-0.0633,-0.0686,-0.0688,-0.0725,-0.0722,-0.0708,-0.0701,-0.0652,-0.0616,-0.0492,-0.0389,-0.029,-0.0142,-0.0141,-0.0056,-0.0021,-0.0096,-0.0101,-0.0058,-0.0059,-0.0056,-0.0057,-0.0058,-0.0058,0,-0.054,-0.0573,-0.0634,-0.0685,-0.0705,-0.0741,-0.0775,-0.0788,-0.0771,-0.0756,-0.0747,-0.0653,-0.0514,-0.0384,-0.0214,-0.0139,-0.001,0.0041,-0.0046,-0.0017,0.0053,0.0047,0.013,0.0132,0.0133,0.0134,0.0135,0,-0.0556,-0.0592,-0.0673,-0.0714,-0.0743,-0.0793,-0.0821,-0.0824,-0.0824,-0.0766,-0.075,-0.0627,-0.0546,-0.0291,-0.0161,0.0029,0.0054,0.011,0.0068,0.0046,0.0073,0.0064,0.0057,0.0137,0.0138,0.0138,0.0138,0,-0.0582,-0.0615,-0.0663,-0.0747,-0.0799,-0.0848,-0.088,-0.0881,-0.0856,-0.0845,-0.073,-0.0605,-0.0442,-0.0267,-0.011,0.0021,0.0063,0.0124,0.0121,0.0082,0.0056,0.0079,0.007,0.0143,0.0142,0.0142,0.0142,0,-0.0593,-0.0634,-0.0699,-0.0767,-0.0835,-0.0873,-0.0894,-0.0871,-0.0862,-0.0786,-0.0737,-0.0574,-0.0473,-0.0268,-0.0124,0.0009,0.0027,0.0048,0.005,0.0046,-0.0009,-0.0056,0.0028,0,0,0,0,0,-0.0597,-0.0643,-0.0712,-0.0785,-0.0849,-0.0883,-0.0915,-0.0918,-0.0887,-0.0805,-0.0768,-0.0612,-0.0382,-0.0286,-0.0148,-0.0121,0.0033,0.0042,0.0054,0.0169,0.0163,0.0114,0,0,0,0,0,0,-0.0601,-0.0668,-0.0707,-0.0779,-0.0824,-0.0884,-0.0903,-0.0887,-0.0834,-0.0783,-0.0659,-0.0587,-0.0367,-0.0453,-0.0144,-0.0105,-0.0083,0.015,0.0152,0.0172,0.0167,0.0162,0.011,0,0,0,0,0]}]]